Terug naar catalogus

TELSTAR 11N

ActiefCommunicatieGEO
NORAD 34111·PAYLOAD·🇨🇦 Canada

Gelanceerd Feb 26, 2009 vanaf Baikonur Cosmodrome

Loading…

TLE

VersSource: CelesTrak SupGP

Epoch: Sep 14, 2026, 04:59 UTC

1 34111C 09009A   26257.20833333 -.00000161  00000+0  00000+0 0  2579
2 34111   0.0264 249.9959 0002560 277.2122 223.4370  1.00271430    17

Volg TELSTAR 11N in realtime met AllMySat

Download on the App Store